Regional Weather Roundup
Issued by NWS State College, PA

Home | Current Version | Previous Version | Graphics & Text | Print | Product List | Glossary On
Versions: 1 2 3 4 5 6 7 8 9 10 11 12 13 14 15 16 17 18 19 20 21 22 23 24 25 26 27 28 29 30 31 32 33 34 35 36 37 38 39 40 41 42 43 44 45 46 47 48 49 50
000
ASUS41 KCTP 270603
RWRCTP

REGIONAL WEATHER ROUNDUP
NATIONAL WEATHER SERVICE STATE COLLEGE PA
100 AM EST FRI FEB 27 2015

Note: "fair" indicates few or no clouds below 12,000 feet with no
significant weather and/or obstructions to visibility.

* = STATION THAT DOES NOT REPORT PRECIPITATION /E.G. RAIN...SNOW...ETC/
    THUNDER OR FOG.

PAZ002>004-007>009-013>016-020>023-029>032-270700-
WESTERN PENNSYLVANIA

CITY           SKY/WX    TMP DP  RH WIND       PRES   REMARKS
ERIE           LGT SNOW   7  -1  70 W5        30.29R WCI  -2
MEADVILLE        N/A      4  -1  80 NW6       30.21R WCI  -7
FRANKLIN*      MOCLDY     5   0  78 NW3       30.20R
NEW CASTLE     FAIR       4   0  83 NW3       30.27R
BEAVER COUNTY  NOT AVBL
BUTLER*        CLOUDY     9   3  78 NW5       30.23R WCI   0
PITTSBURGH INT FLURRIES  10   5  80 NW12      30.23R WCI  -5
PITTSBURGH     LGT SNOW  10   3  73 NW7       30.21R WCI  -1
INDIANA*       CLOUDY    10   9  92 NW8       30.22R FOG     WCI  -1
LATROBE        LGT SNOW  12   9  85 NW7       30.23R WCI   2
WASHINGTON CO* CLOUDY    10   3  72 NW6       30.24R WCI   1
$$

PAZ004>006-010>012-017>019-024>028-033>037-041-042-045-046-049>053-270700-
CENTRAL PENNSYLVANIA

CITY           SKY/WX    TMP DP  RH WIND       PRES   REMARKS
BRADFORD       LGT SNOW   6   1  80 NW3       30.09R
DUBOIS         LGT SNOW   8   4  83 NW7       30.12R FOG     WCI  -3
CLEARFIELD     CLOUDY    13   6  74 N8        30.14R WCI   2
JOHNSTOWN      LGT SNOW  10   6  84 NW10      30.06R FOG     WCI  -4
ALTOONA        CLOUDY    19  11  70 NW12      30.12R WCI   7
STATE COLLEGE  LGT SNOW  18  15  88 NE5       30.13R WCI  11
WILLIAMSPORT   CLOUDY    16   3  56 NW5       30.21R WCI   9
SELINSGROVE    CLOUDY    15  10  80 N5        30.19R WCI   8
FT INDIANTOWN  NOT AVBL
CAPITAL CITY   CLOUDY    26  13  57 NW5       30.16R
HARRISBURG     MOCLDY    25  15  66 NW6       30.16R
YORK           CLOUDY    25  19  78 CALM      30.15R
$$

PAZ038>040-043-044-047-048-054-055-060>062-067>071-270700-
EASTERN PENNSYLVANIA

CITY           SKY/WX    TMP DP  RH WIND       PRES   REMARKS
SCRANTON       CLOUDY    13   4  67 N6        30.15R WCI   4
MOUNT POCONO   MOCLDY     9   5  84 NW7       30.02R WCI  -2
ALLENTOWN      PTCLDY    18   9  68 NW3       30.17R
QUAKERTOWN*    CLOUDY    16  10  79 CALM      30.16R
READING        CLOUDY    23  12  62 N7        30.16R WCI  15
LANCASTER      CLOUDY    26  14  60 CALM      30.15R
COATESVILLE    CLOUDY    27  19  74 CALM      30.14R
POTTSTOWN      CLOUDY    22  15  75 NE5       30.17R
BLUE BELL      PTCLDY    27  18  69 CALM      30.16R
DOYLESTOWN     CLEAR     19  13  77 N3        30.15R
WILLOW GROVE   NOT AVBL
NORTH PHILA    PTCLDY    24  13  62 CALM      30.18R
PHILADELPHIA   MOCLDY    26  18  71 CALM      30.18R
$$



USA.gov is the U.S. government's official web portal to all federal, state and local government web resources and services.